Time,TemperatureF,DewpointF,PressureIn,WindDirection,WindDirectionDegrees,WindSpeedMPH,WindSpeedGustMPH,Humidity,HourlyPrecipIn,Conditions,Clouds,dailyrainin,SoftwareType,DateUTC
2013-05-21 00:00:00,69.8,65.4,29.77,North,1,0.0,7.0,86,0.00,,,0.12,VWS V14.01,2013-05-21 05:00:00,
2013-05-21 00:05:00,69.6,65.2,29.77,North,1,0.0,0.0,86,0.00,,BKN250,0.00,VWS V14.01,2013-05-21 05:05:00,
2013-05-21 00:10:00,69.3,65.6,29.77,ENE,66,0.0,2.0,88,0.00,,BKN250,0.00,VWS V14.01,2013-05-21 05:10:00,
2013-05-21 00:15:00,69.1,65.4,29.77,ENE,66,0.0,2.0,88,0.00,,BKN250,0.00,VWS V14.01,2013-05-21 05:15:00,
2013-05-21 00:20:00,69.1,65.4,29.77,ENE,66,0.0,2.0,88,0.00,,BKN250,0.00,VWS V14.01,2013-05-21 05:20:00,
2013-05-21 00:25:00,68.9,65.2,29.77,ENE,66,0.0,2.0,88,0.00,,BKN250,0.00,VWS V14.01,2013-05-21 05:25:00,
2013-05-21 00:30:00,68.9,65.2,29.76,ENE,66,0.0,2.0,88,0.00,,BKN250,0.00,VWS V14.01,2013-05-21 05:30:00,
2013-05-21 00:35:00,68.8,65.1,29.76,ENE,66,0.0,2.0,88,0.00,,BKN250,0.00,VWS V14.01,2013-05-21 05:35:00,
2013-05-21 00:40:00,68.6,64.9,29.76,ENE,66,0.0,2.0,88,0.00,,BKN250,0.00,VWS V14.01,2013-05-21 05:40:00,
2013-05-21 00:45:00,68.8,64.8,29.77,ENE,66,0.0,2.0,87,0.00,,BKN250,0.00,VWS V14.01,2013-05-21 05:45:00,
2013-05-21 00:50:00,68.9,64.9,29.77,ENE,66,0.0,3.0,87,0.00,,BKN250,0.00,VWS V14.01,2013-05-21 05:50:00,
2013-05-21 00:55:00,68.8,64.4,29.77,ENE,66,0.0,3.0,86,0.00,,BKN250,0.00,VWS V14.01,2013-05-21 05:55:00,
2013-05-21 01:00:00,68.8,64.4,29.77,ENE,66,2.0,2.0,86,0.00,,OVC250,0.00,VWS V14.01,2013-05-21 06:00:00,
2013-05-21 01:05:00,68.9,63.9,29.77,ESE,113,1.0,3.0,84,0.00,,OVC250,0.00,VWS V14.01,2013-05-21 06:05:00,
2013-05-21 01:10:00,69.3,63.2,29.77,SE,133,2.0,6.0,81,0.00,,OVC250,0.00,VWS V14.01,2013-05-21 06:10:00,
2013-05-21 01:15:00,69.4,63.3,29.77,SE,128,2.0,7.0,81,0.00,,OVC250,0.00,VWS V14.01,2013-05-21 06:15:00,
2013-05-21 01:20:00,69.1,63.4,29.77,SE,126,2.0,7.0,82,0.00,,OVC250,0.00,VWS V14.01,2013-05-21 06:20:00,
2013-05-21 01:25:00,68.9,63.2,29.77,SE,140,1.0,7.0,82,0.00,,OVC250,0.00,VWS V14.01,2013-05-21 06:25:00,
2013-05-21 01:30:00,68.8,63.1,29.75,ESE,103,1.0,7.0,82,0.00,,OVC250,0.00,VWS V14.01,2013-05-21 06:30:00,
2013-05-21 01:35:00,68.6,62.9,29.75,ENE,76,5.0,7.0,82,0.00,,OVC250,0.00,VWS V14.01,2013-05-21 06:35:00,
2013-05-21 01:40:00,68.6,62.9,29.75,East,79,0.0,7.0,82,0.00,,OVC250,0.00,VWS V14.01,2013-05-21 06:40:00,
2013-05-21 01:45:00,68.6,62.9,29.74,East,99,2.0,7.0,82,0.00,,OVC250,0.00,VWS V14.01,2013-05-21 06:45:00,
2013-05-21 01:51:00,68.4,63.0,29.74,SE,137,0.0,7.0,83,0.00,,OVC250,0.00,VWS V14.01,2013-05-21 06:51:00,
2013-05-21 01:56:00,68.3,63.3,29.74,East,100,2.0,7.0,84,0.00,,OVC250,0.00,VWS V14.01,2013-05-21 06:56:00,
2013-05-21 02:00:00,68.1,62.8,29.73,East,96,0.0,7.0,83,0.00,,OVC041CB,0.00,VWS V14.01,2013-05-21 07:00:00,
2013-05-21 02:01:00,68.1,62.8,29.73,ESE,102,0.0,2.0,83,0.00,,OVC250,0.00,VWS V14.01,2013-05-21 07:01:00,
2013-05-21 02:06:00,68.1,62.8,29.73,ESE,116,0.0,3.0,83,0.00,,OVC250,0.00,VWS V14.01,2013-05-21 07:06:00,
2013-05-21 02:11:00,67.9,62.5,29.73,SSW,195,1.0,3.0,83,0.00,,OVC250,0.00,VWS V14.01,2013-05-21 07:11:00,
2013-05-21 02:16:00,67.8,62.8,29.75,SE,124,0.0,5.0,84,0.00,,OVC250,0.00,VWS V14.01,2013-05-21 07:16:00,
2013-05-21 02:21:00,67.6,62.6,29.75,ESE,110,2.0,5.0,84,0.00,,OVC250,0.00,VWS V14.01,2013-05-21 07:21:00,
2013-05-21 02:26:00,67.4,62.4,29.75,ESE,110,0.0,5.0,84,0.00,,OVC250,0.00,VWS V14.01,2013-05-21 07:26:00,
2013-05-21 02:31:00,67.4,62.4,29.74,ESE,113,0.0,5.0,84,0.00,,OVC250,0.00,VWS V14.01,2013-05-21 07:31:00,
2013-05-21 02:36:00,67.3,62.3,29.74,ESE,113,0.0,5.0,84,0.00,,OVC250,0.00,VWS V14.01,2013-05-21 07:36:00,
2013-05-21 02:41:00,67.3,62.3,29.74,ESE,113,0.0,5.0,84,0.00,,OVC250,0.00,VWS V14.01,2013-05-21 07:41:00,
2013-05-21 02:46:00,67.1,62.1,29.74,ESE,113,0.0,5.0,84,0.00,,OVC250,0.00,VWS V14.01,2013-05-21 07:46:00,
2013-05-21 02:51:00,66.9,61.9,29.74,ESE,114,0.0,5.0,84,0.00,,OVC250,0.00,VWS V14.01,2013-05-21 07:51:00,
2013-05-21 02:56:00,66.9,62.2,29.74,ESE,114,0.0,5.0,85,0.00,,OVC250,0.00,VWS V14.01,2013-05-21 07:56:00,
2013-05-21 03:01:00,66.9,62.2,29.75,South,181,0.0,1.0,85,0.00,,OVC210,0.00,VWS V14.01,2013-05-21 08:01:00,
2013-05-21 03:06:00,66.8,61.8,29.75,SSE,168,0.0,5.0,84,0.00,,OVC210,0.00,VWS V14.01,2013-05-21 08:06:00,
2013-05-21 03:11:00,66.8,61.5,29.75,SSE,161,0.0,10.0,83,0.00,,OVC210,0.00,VWS V14.01,2013-05-21 08:11:00,
2013-05-21 03:16:00,66.6,61.6,29.77,ESE,119,0.0,10.0,84,0.00,,OVC210,0.00,VWS V14.01,2013-05-21 08:16:00,
2013-05-21 03:21:00,66.4,60.7,29.77,SE,145,0.0,10.0,82,0.00,,OVC210,0.00,VWS V14.01,2013-05-21 08:21:00,
2013-05-21 03:26:00,66.4,60.7,29.77,SSW,193,0.0,10.0,82,0.00,,OVC210,0.00,VWS V14.01,2013-05-21 08:26:00,
2013-05-21 03:31:00,66.4,60.7,29.77,ESE,102,0.0,10.0,82,0.00,,OVC210,0.00,VWS V14.01,2013-05-21 08:31:00,
2013-05-21 03:36:00,66.4,60.7,29.77,SE,140,0.0,10.0,82,0.00,,OVC210,0.00,VWS V14.01,2013-05-21 08:36:00,
2013-05-21 03:41:00,66.4,60.7,29.77,SSE,161,2.0,10.0,82,0.00,,OVC210,0.00,VWS V14.01,2013-05-21 08:41:00,
2013-05-21 03:47:00,66.4,60.7,29.75,SSW,193,0.0,10.0,82,0.00,,OVC210,0.00,VWS V14.01,2013-05-21 08:47:00,
2013-05-21 03:52:00,66.3,61.0,29.75,South,184,2.0,10.0,83,0.00,,OVC210,0.00,VWS V14.01,2013-05-21 08:52:00,
2013-05-21 03:57:00,66.1,60.8,29.75,South,186,0.0,10.0,83,0.00,,OVC210,0.00,VWS V14.01,2013-05-21 08:57:00,
2013-05-21 04:00:00,66.1,61.1,29.74,SSE,148,0.0,10.0,84,0.00,,OVC041CB,0.00,VWS V14.01,2013-05-21 09:00:00,
2013-05-21 04:02:00,66.0,61.0,29.74,SSE,155,0.0,0.0,84,0.00,,OVC220,0.00,VWS V14.01,2013-05-21 09:02:00,
2013-05-21 04:07:00,65.8,60.8,29.74,South,172,0.0,2.0,84,0.00,,OVC220,0.00,VWS V14.01,2013-05-21 09:07:00,
2013-05-21 04:12:00,65.8,60.8,29.74,South,191,0.0,3.0,84,0.00,,OVC220,0.00,VWS V14.01,2013-05-21 09:12:00,
2013-05-21 04:17:00,65.6,61.0,29.74,South,191,0.0,5.0,85,0.00,,OVC220,0.00,VWS V14.01,2013-05-21 09:17:00,
2013-05-21 04:22:00,65.6,61.0,29.74,South,191,0.0,5.0,85,0.00,,OVC220,0.00,VWS V14.01,2013-05-21 09:22:00,
2013-05-21 04:27:00,65.5,60.9,29.74,South,191,0.0,5.0,85,0.00,,OVC220,0.00,VWS V14.01,2013-05-21 09:27:00,
2013-05-21 04:32:00,65.5,60.9,29.73,South,191,0.0,5.0,85,0.00,,OVC220,0.00,VWS V14.01,2013-05-21 09:32:00,
2013-05-21 04:37:00,65.3,60.7,29.73,South,191,0.0,5.0,85,0.00,,OVC220,0.00,VWS V14.01,2013-05-21 09:37:00,
2013-05-21 04:42:00,65.2,60.6,29.73,South,191,0.0,5.0,85,0.00,,OVC220,0.00,VWS V14.01,2013-05-21 09:42:00,
2013-05-21 04:47:00,65.2,60.6,29.75,South,191,0.0,5.0,85,0.00,,OVC220,0.00,VWS V14.01,2013-05-21 09:47:00,
2013-05-21 04:52:00,65.0,60.7,29.75,South,191,0.0,5.0,86,0.00,,OVC220,0.00,VWS V14.01,2013-05-21 09:52:00,
2013-05-21 04:57:00,65.0,61.0,29.75,South,191,0.0,5.0,87,0.00,,OVC220,0.00,VWS V14.01,2013-05-21 09:57:00,
2013-05-21 05:02:00,65.0,61.0,29.76,South,191,0.0,0.0,87,0.00,,OVC230,0.00,VWS V14.01,2013-05-21 10:02:00,
2013-05-21 05:07:00,65.2,61.2,29.76,South,191,0.0,2.0,87,0.00,,OVC230,0.00,VWS V14.01,2013-05-21 10:07:00,
2013-05-21 05:12:00,65.3,61.3,29.76,South,191,0.0,2.0,87,0.00,,OVC230,0.00,VWS V14.01,2013-05-21 10:12:00,
2013-05-21 05:17:00,65.3,61.3,29.77,SSW,192,0.0,2.0,87,0.00,,OVC230,0.00,VWS V14.01,2013-05-21 10:17:00,
2013-05-21 05:22:00,65.3,61.0,29.77,SSW,193,1.0,5.0,86,0.00,,OVC230,0.00,VWS V14.01,2013-05-21 10:22:00,
2013-05-21 05:27:00,65.5,61.5,29.77,SSW,193,1.0,5.0,87,0.00,,OVC230,0.00,VWS V14.01,2013-05-21 10:27:00,
2013-05-21 05:32:00,65.5,61.5,29.78,SSW,193,0.0,5.0,87,0.00,,OVC230,0.00,VWS V14.01,2013-05-21 10:32:00,
2013-05-21 05:37:00,65.5,61.5,29.78,SSW,193,0.0,5.0,87,0.00,,OVC230,0.00,VWS V14.01,2013-05-21 10:37:00,
2013-05-21 05:42:00,65.6,61.3,29.78,SSW,193,0.0,5.0,86,0.00,,OVC230,0.00,VWS V14.01,2013-05-21 10:42:00,
2013-05-21 05:47:00,65.6,61.3,29.80,SSW,193,0.0,5.0,86,0.00,,OVC230,0.00,VWS V14.01,2013-05-21 10:47:00,
2013-05-21 05:52:00,65.6,61.3,29.80,SSW,193,0.0,5.0,86,0.00,,OVC230,0.00,VWS V14.01,2013-05-21 10:52:00,
2013-05-21 05:58:00,65.6,61.3,29.80,SSW,193,0.0,5.0,86,0.00,,OVC230,0.00,VWS V14.01,2013-05-21 10:58:00,
2013-05-21 06:03:00,65.6,61.3,29.79,SSW,193,0.0,0.0,86,0.00,,OVC210,0.00,VWS V14.01,2013-05-21 11:03:00,
2013-05-21 06:08:00,65.6,61.6,29.79,SSW,193,0.0,0.0,87,0.00,,OVC210,0.00,VWS V14.01,2013-05-21 11:08:00,
2013-05-21 06:13:00,65.6,61.6,29.79,South,185,0.0,2.0,87,0.00,,OVC210,0.00,VWS V14.01,2013-05-21 11:13:00,
2013-05-21 06:18:00,65.5,61.9,29.80,East,86,2.0,7.0,88,0.00,,OVC210,0.00,VWS V14.01,2013-05-21 11:18:00,
2013-05-21 06:23:00,65.5,61.5,29.80,West,272,5.0,7.0,87,0.00,,OVC210,0.00,VWS V14.01,2013-05-21 11:23:00,
2013-05-21 06:28:00,65.5,61.5,29.80,North,0,3.0,7.0,87,0.00,,OVC210,0.00,VWS V14.01,2013-05-21 11:28:00,
2013-05-21 06:33:00,65.5,61.9,29.76,WNW,289,5.0,7.0,88,0.00,,OVC210,0.00,VWS V14.01,2013-05-21 11:33:00,
2013-05-21 06:38:00,65.3,61.7,29.76,West,275,1.0,7.0,88,0.00,,OVC210,0.00,VWS V14.01,2013-05-21 11:38:00,
2013-05-21 06:43:00,65.2,61.6,29.76,WNW,302,0.0,7.0,88,0.00,,OVC210,0.00,VWS V14.01,2013-05-21 11:43:00,
2013-05-21 06:48:00,65.2,61.9,29.79,SSE,147,0.0,7.0,89,0.00,,OVC210,0.00,VWS V14.01,2013-05-21 11:48:00,
2013-05-21 06:53:00,65.2,61.9,29.79,SSE,147,0.0,7.0,89,0.00,,OVC210,0.00,VWS V14.01,2013-05-21 11:53:00,
2013-05-21 06:58:00,65.2,61.9,29.79,SSE,147,0.0,7.0,89,0.00,,OVC210,0.00,VWS V14.01,2013-05-21 11:58:00,
2013-05-21 07:00:00,65.2,61.9,29.80,SSE,147,0.0,7.0,89,0.00,,OVC041CB,0.00,VWS V14.01,2013-05-21 12:00:00,
2013-05-21 07:03:00,65.0,61.7,29.80,SSE,147,0.0,0.0,89,0.00,,OVC190,0.00,VWS V14.01,2013-05-21 12:03:00,
2013-05-21 07:08:00,65.0,62.0,29.80,SSE,147,0.0,0.0,90,0.00,,OVC190,0.00,VWS V14.01,2013-05-21 12:08:00,
2013-05-21 07:13:00,65.0,62.0,29.80,SSE,147,0.0,0.0,90,0.00,,OVC190,0.00,VWS V14.01,2013-05-21 12:13:00,
2013-05-21 07:18:00,64.8,61.8,29.80,SSE,147,0.0,0.0,90,0.00,,OVC190,0.00,VWS V14.01,2013-05-21 12:18:00,
2013-05-21 07:23:00,64.7,62.0,29.80,SSE,147,0.0,0.0,91,0.00,,OVC190,0.00,VWS V14.01,2013-05-21 12:23:00,
2013-05-21 07:28:00,64.7,62.0,29.80,SSE,147,0.0,0.0,91,0.00,,OVC190,0.00,VWS V14.01,2013-05-21 12:28:00,
2013-05-21 07:33:00,64.8,62.1,29.83,SSE,147,0.0,1.0,91,0.00,,OVC190,0.00,VWS V14.01,2013-05-21 12:33:00,
2013-05-21 07:39:00,64.8,62.1,29.83,SSE,147,0.0,1.0,91,0.00,,OVC190,0.00,VWS V14.01,2013-05-21 12:39:00,
2013-05-21 07:44:00,64.8,62.4,29.83,SSE,147,0.0,1.0,92,0.00,,OVC190,0.00,VWS V14.01,2013-05-21 12:44:00,
2013-05-21 07:49:00,64.8,62.4,29.83,SSE,147,0.0,1.0,92,0.00,,OVC190,0.00,VWS V14.01,2013-05-21 12:49:00,
2013-05-21 07:54:00,64.8,62.4,29.83,SSE,147,0.0,1.0,92,0.00,,OVC190,0.00,VWS V14.01,2013-05-21 12:54:00,
2013-05-21 07:59:00,65.0,62.6,29.83,SSE,150,0.0,2.0,92,0.00,,OVC190,0.00,VWS V14.01,2013-05-21 12:59:00,
2013-05-21 08:04:00,65.0,62.6,29.84,SSE,148,0.0,1.0,92,0.00,,OVC200,0.00,VWS V14.01,2013-05-21 13:04:00,
2013-05-21 08:09:00,65.2,62.8,29.84,West,272,1.0,5.0,92,0.00,,OVC200,0.00,VWS V14.01,2013-05-21 13:09:00,
2013-05-21 08:14:00,65.2,63.4,29.84,West,270,1.0,7.0,94,0.00,,OVC200,0.00,VWS V14.01,2013-05-21 13:14:00,
2013-05-21 08:19:00,65.2,63.4,29.86,WNW,295,0.0,7.0,94,0.01,,OVC200,0.01,VWS V14.01,2013-05-21 13:19:00,
2013-05-21 08:24:00,65.0,63.2,29.86,WNW,301,0.0,7.0,94,0.01,,OVC200,0.01,VWS V14.01,2013-05-21 13:24:00,
2013-05-21 08:29:00,64.7,63.2,29.86,NW,308,0.0,7.0,95,0.02,,OVC200,0.02,VWS V14.01,2013-05-21 13:29:00,
2013-05-21 08:34:00,64.5,63.3,29.84,East,82,5.0,7.0,96,0.02,,OVC200,0.02,VWS V14.01,2013-05-21 13:34:00,
2013-05-21 08:39:00,64.2,63.9,29.84,NE,48,10.0,14.0,99,0.03,,OVC200,0.03,VWS V14.01,2013-05-21 13:39:00,
2013-05-21 08:44:00,63.5,63.5,29.67,ENE,59,5.0,19.0,100,0.04,,OVC200,0.04,VWS V14.01,2013-05-21 13:44:00,
2013-05-21 08:49:00,63.2,63.2,29.67,NNE,17,5.0,19.0,100,0.04,,OVC200,0.04,VWS V14.01,2013-05-21 13:49:00,
2013-05-21 08:54:00,63.1,63.1,29.67,East,80,5.0,19.0,100,0.04,,OVC200,0.04,VWS V14.01,2013-05-21 13:54:00,
2013-05-21 08:59:00,63.1,63.1,29.73,West,270,14.0,19.0,100,0.04,,OVC200,0.04,VWS V14.01,2013-05-21 13:59:00,
2013-05-21 09:04:00,63.1,63.1,29.73,North,349,10.0,21.0,100,0.04,,-RA,0.04,VWS V14.01,2013-05-21 14:04:00,
2013-05-21 09:09:00,63.1,62.8,29.73,NNW,332,3.0,21.0,99,0.04,,-RA,0.04,VWS V14.01,2013-05-21 14:09:00,
2013-05-21 09:14:00,62.7,62.1,29.77,WNW,302,7.0,21.0,98,0.04,,-RA,0.04,VWS V14.01,2013-05-21 14:14:00,
2013-05-21 09:19:00,62.1,61.0,29.77,North,352,8.0,21.0,96,0.04,,-RA,0.04,VWS V14.01,2013-05-21 14:19:00,
2013-05-21 09:24:00,61.8,59.5,29.77,North,352,2.0,21.0,92,0.04,,-RA,0.04,VWS V14.01,2013-05-21 14:24:00,
2013-05-21 09:29:00,61.8,58.8,29.83,NW,326,0.0,21.0,90,0.04,,-RA,0.04,VWS V14.01,2013-05-21 14:29:00,
2013-05-21 09:34:00,61.8,59.2,29.83,North,352,0.0,21.0,91,0.04,,-RA,0.04,VWS V14.01,2013-05-21 14:34:00,
2013-05-21 09:40:00,61.6,58.6,29.83,North,0,0.0,21.0,90,0.04,,-RA,0.04,VWS V14.01,2013-05-21 14:40:00,
2013-05-21 09:45:00,61.8,59.2,29.83,North,7,0.0,21.0,91,0.04,,-RA,0.04,VWS V14.01,2013-05-21 14:45:00,
2013-05-21 09:50:00,61.8,59.2,29.83,North,7,0.0,21.0,91,0.04,,-RA,0.04,VWS V14.01,2013-05-21 14:50:00,
2013-05-21 09:55:00,62.0,59.3,29.83,North,7,0.0,21.0,91,0.04,,-RA,0.04,VWS V14.01,2013-05-21 14:55:00,
2013-05-21 10:00:00,62.0,59.3,29.84,North,4,0.0,21.0,91,0.04,,-RA,0.04,VWS V14.01,2013-05-21 15:00:00,
2013-05-21 10:05:00,62.0,59.3,29.84,NNW,333,0.0,5.0,91,0.00,,OVC110,0.04,VWS V14.01,2013-05-21 15:05:00,
2013-05-21 10:10:00,62.1,59.1,29.84,NNW,328,0.0,5.0,90,0.00,,OVC110,0.04,VWS V14.01,2013-05-21 15:10:00,
2013-05-21 10:15:00,62.1,58.8,29.84,NNW,328,0.0,5.0,89,0.00,,OVC110,0.04,VWS V14.01,2013-05-21 15:15:00,
2013-05-21 10:20:00,62.1,58.8,29.84,NNW,328,0.0,5.0,89,0.00,,OVC110,0.04,VWS V14.01,2013-05-21 15:20:00,
2013-05-21 10:25:00,62.1,58.8,29.84,NNW,328,0.0,5.0,89,0.00,,OVC110,0.04,VWS V14.01,2013-05-21 15:25:00,
2013-05-21 10:30:00,62.1,58.5,29.86,NNW,328,0.0,5.0,88,0.00,,OVC110,0.04,VWS V14.01,2013-05-21 15:30:00,
2013-05-21 10:35:00,62.1,58.5,29.86,NNW,328,0.0,5.0,88,0.00,,OVC110,0.04,VWS V14.01,2013-05-21 15:35:00,
2013-05-21 10:40:00,62.3,59.0,29.86,NNW,328,0.0,5.0,89,0.00,,OVC110,0.04,VWS V14.01,2013-05-21 15:40:00,
2013-05-21 10:45:00,62.3,58.7,29.88,NNW,328,0.0,5.0,88,0.00,,OVC110,0.04,VWS V14.01,2013-05-21 15:45:00,
2013-05-21 10:50:00,62.4,58.5,29.88,WNW,298,0.0,5.0,87,0.00,,OVC110,0.04,VWS V14.01,2013-05-21 15:50:00,
2013-05-21 10:55:00,62.4,58.8,29.88,WNW,295,0.0,5.0,88,0.01,,OVC110,0.05,VWS V14.01,2013-05-21 15:55:00,
2013-05-21 11:00:00,62.4,59.1,29.89,West,271,2.0,5.0,89,0.02,,SHRA,0.06,VWS V14.01,2013-05-21 16:00:00,
2013-05-21 11:06:00,62.3,60.0,29.89,West,270,0.0,5.0,92,0.03,,SHRA,0.07,VWS V14.01,2013-05-21 16:06:00,
2013-05-21 11:11:00,62.0,59.3,29.89,West,272,0.0,5.0,91,0.04,,SHRA,0.08,VWS V14.01,2013-05-21 16:11:00,
2013-05-21 11:16:00,61.6,59.3,29.90,West,272,0.0,5.0,92,0.06,,SHRA,0.10,VWS V14.01,2013-05-21 16:16:00,
2013-05-21 11:21:00,61.3,59.9,29.90,West,272,0.0,6.0,95,0.08,,SHRA,0.12,VWS V14.01,2013-05-21 16:21:00,
2013-05-21 11:26:00,61.0,59.6,29.90,SSW,196,2.0,6.0,95,0.09,,SHRA,0.13,VWS V14.01,2013-05-21 16:26:00,
2013-05-21 11:31:00,60.9,59.5,29.91,South,179,0.0,6.0,95,0.10,,SHRA,0.14,VWS V14.01,2013-05-21 16:31:00,
2013-05-21 11:36:00,60.7,59.6,29.91,South,179,0.0,6.0,96,0.11,,SHRA,0.15,VWS V14.01,2013-05-21 16:36:00,
2013-05-21 11:41:00,60.4,59.0,29.91,WSW,251,0.0,6.0,95,0.13,,SHRA,0.17,VWS V14.01,2013-05-21 16:41:00,
2013-05-21 11:46:00,60.2,59.1,29.87,East,90,3.0,6.0,96,0.14,,SHRA,0.18,VWS V14.01,2013-05-21 16:46:00,
2013-05-21 11:51:00,60.2,59.3,29.87,East,83,2.0,6.0,97,0.15,,SHRA,0.19,VWS V14.01,2013-05-21 16:51:00,
2013-05-21 11:56:00,60.2,59.6,29.87,NW,305,0.0,6.0,98,0.16,,SHRA,0.20,VWS V14.01,2013-05-21 16:56:00,
2013-05-21 12:01:00,60.1,59.5,29.83,NNE,13,2.0,5.0,98,0.15,,OVC100,0.21,VWS V14.01,2013-05-21 17:01:00,
2013-05-21 12:06:00,59.6,59.3,29.83,North,349,5.0,7.0,99,0.15,,OVC100,0.21,VWS V14.01,2013-05-21 17:06:00,
2013-05-21 12:11:00,59.3,59.0,29.83,North,8,2.0,7.0,99,0.16,,OVC100,0.22,VWS V14.01,2013-05-21 17:11:00,
2013-05-21 12:16:00,59.2,58.6,29.81,NE,41,0.0,7.0,98,0.16,,OVC100,0.22,VWS V14.01,2013-05-21 17:16:00,
2013-05-21 12:21:00,59.2,58.9,29.81,NE,41,2.0,7.0,99,0.16,,OVC100,0.22,VWS V14.01,2013-05-21 17:21:00,
2013-05-21 12:26:00,59.5,59.5,29.81,ENE,78,6.0,12.0,100,0.16,,OVC100,0.22,VWS V14.01,2013-05-21 17:26:00,
2013-05-21 12:31:00,59.6,59.6,29.75,East,89,7.0,12.0,100,0.16,,OVC100,0.22,VWS V14.01,2013-05-21 17:31:00,
2013-05-21 12:36:00,59.8,59.8,29.75,ENE,78,7.0,12.0,100,0.16,,OVC100,0.22,VWS V14.01,2013-05-21 17:36:00,
2013-05-21 12:41:00,60.2,60.2,29.75,East,82,0.0,12.0,100,0.16,,OVC100,0.22,VWS V14.01,2013-05-21 17:41:00,
2013-05-21 12:47:00,60.5,60.5,29.76,East,82,0.0,12.0,100,0.16,,OVC100,0.22,VWS V14.01,2013-05-21 17:47:00,
2013-05-21 12:52:00,60.7,60.7,29.76,SSW,210,2.0,12.0,100,0.16,,OVC100,0.22,VWS V14.01,2013-05-21 17:52:00,
2013-05-21 12:57:00,60.9,60.9,29.76,WSW,256,0.0,12.0,100,0.16,,OVC100,0.22,VWS V14.01,2013-05-21 17:57:00,
2013-05-21 13:00:00,61.0,61.0,29.81,WNW,294,5.0,12.0,100,0.16,,OVC041CB,0.22,VWS V14.01,2013-05-21 18:00:00,
2013-05-21 13:02:00,61.0,61.0,29.81,WNW,292,0.0,5.0,100,0.01,,OVC200,0.22,VWS V14.01,2013-05-21 18:02:00,
2013-05-21 13:07:00,61.0,61.0,29.81,NNW,335,0.0,5.0,100,0.01,,OVC200,0.22,VWS V14.01,2013-05-21 18:07:00,
2013-05-21 13:12:00,61.0,61.0,29.81,WNW,296,2.0,6.0,100,0.01,,OVC200,0.22,VWS V14.01,2013-05-21 18:12:00,
2013-05-21 13:17:00,60.9,60.9,29.76,NNW,344,2.0,8.0,100,0.01,,OVC200,0.22,VWS V14.01,2013-05-21 18:17:00,
2013-05-21 13:22:00,60.9,60.9,29.76,WNW,289,0.0,8.0,100,0.01,,OVC200,0.22,VWS V14.01,2013-05-21 18:22:00,
2013-05-21 13:27:00,60.9,60.3,29.76,WNW,294,5.0,8.0,98,0.01,,OVC200,0.22,VWS V14.01,2013-05-21 18:27:00,
2013-05-21 13:32:00,60.7,60.1,29.79,WNW,285,5.0,10.0,98,0.01,,OVC200,0.22,VWS V14.01,2013-05-21 18:32:00,
2013-05-21 13:37:00,60.7,59.6,29.79,WSW,258,7.0,14.0,96,0.01,,OVC200,0.22,VWS V14.01,2013-05-21 18:37:00,
2013-05-21 13:42:00,60.9,59.8,29.79,West,270,5.0,14.0,96,0.01,,OVC200,0.22,VWS V14.01,2013-05-21 18:42:00,
2013-05-21 13:47:00,61.0,60.4,29.89,WSW,250,7.0,14.0,98,0.02,,OVC200,0.23,VWS V14.01,2013-05-21 18:47:00,
2013-05-21 13:52:00,61.0,60.2,29.89,WSW,251,10.0,14.0,97,0.04,,OVC200,0.25,VWS V14.01,2013-05-21 18:52:00,
2013-05-21 13:57:00,61.0,59.9,29.89,WSW,258,10.0,14.0,96,0.04,,OVC200,0.25,VWS V14.01,2013-05-21 18:57:00,
2013-05-21 14:02:00,60.9,60.0,29.91,WSW,257,6.0,17.0,97,0.04,,OVC040CB,0.26,VWS V14.01,2013-05-21 19:02:00,
2013-05-21 14:07:00,60.9,60.0,29.91,WSW,257,5.0,17.0,97,0.06,,OVC040CB,0.28,VWS V14.01,2013-05-21 19:07:00,
2013-05-21 14:12:00,60.1,59.2,29.91,West,274,7.0,17.0,97,0.08,,OVC040CB,0.30,VWS V14.01,2013-05-21 19:12:00,
2013-05-21 14:17:00,59.8,59.2,29.92,WNW,287,7.0,17.0,98,0.10,,OVC040CB,0.32,VWS V14.01,2013-05-21 19:17:00,
2013-05-21 14:23:00,59.6,58.8,29.92,West,274,7.0,19.0,97,0.12,,OVC040CB,0.34,VWS V14.01,2013-05-21 19:23:00,
2013-05-21 14:28:00,59.5,58.7,29.92,WNW,287,7.0,19.0,97,0.13,,OVC040CB,0.35,VWS V14.01,2013-05-21 19:28:00,
2013-05-21 14:33:00,59.3,58.7,29.91,West,260,5.0,19.0,98,0.16,,OVC040CB,0.38,VWS V14.01,2013-05-21 19:33:00,
2013-05-21 14:38:00,59.3,59.3,29.91,West,264,3.0,19.0,100,0.18,,OVC040CB,0.40,VWS V14.01,2013-05-21 19:38:00,
2013-05-21 14:43:00,59.2,58.9,29.91,West,281,1.0,19.0,99,0.20,,OVC040CB,0.42,VWS V14.01,2013-05-21 19:43:00,
2013-05-21 14:48:00,59.0,58.7,29.92,West,265,3.0,19.0,99,0.22,,OVC040CB,0.44,VWS V14.01,2013-05-21 19:48:00,
2013-05-21 14:53:00,58.9,58.6,29.92,West,272,0.0,19.0,99,0.24,,OVC040CB,0.46,VWS V14.01,2013-05-21 19:53:00,
2013-05-21 14:58:00,58.7,58.4,29.92,West,278,5.0,19.0,99,0.24,,OVC040CB,0.46,VWS V14.01,2013-05-21 19:58:00,
2013-05-21 15:03:00,58.6,58.0,29.91,West,275,0.0,0.0,98,0.21,,,0.47,VWS V14.01,2013-05-21 20:03:00,
2013-05-21 15:08:00,58.6,58.0,29.91,West,275,0.0,0.0,98,0.22,,,0.48,VWS V14.01,2013-05-21 20:08:00,
2013-05-21 15:13:00,58.6,58.0,29.91,West,275,0.0,1.0,98,0.23,,,0.49,VWS V14.01,2013-05-21 20:13:00,
2013-05-21 15:18:00,58.6,58.3,29.90,SE,124,0.0,2.0,99,0.24,,,0.50,VWS V14.01,2013-05-21 20:18:00,
2013-05-21 15:23:00,58.7,58.1,29.90,ENE,71,3.0,6.0,98,0.25,,,0.51,VWS V14.01,2013-05-21 20:23:00,
2013-05-21 15:28:00,58.7,58.1,29.90,South,169,2.0,7.0,98,0.26,,,0.52,VWS V14.01,2013-05-21 20:28:00,
2013-05-21 15:33:00,58.7,58.1,29.87,ENE,72,1.0,10.0,98,0.26,,,0.52,VWS V14.01,2013-05-21 20:33:00,
2013-05-21 15:38:00,58.7,58.4,29.87,East,96,2.0,10.0,99,0.27,,,0.53,VWS V14.01,2013-05-21 20:38:00,
2013-05-21 15:43:00,58.4,58.1,29.87,East,80,3.0,10.0,99,0.29,,,0.55,VWS V14.01,2013-05-21 20:43:00,
2013-05-21 15:48:00,58.3,58.3,29.82,East,88,5.0,17.0,100,0.30,,,0.56,VWS V14.01,2013-05-21 20:48:00,
2013-05-21 15:53:00,58.1,58.1,29.82,ESE,106,5.0,17.0,100,0.30,,,0.56,VWS V14.01,2013-05-21 20:53:00,
2013-05-21 15:59:00,58.0,57.7,29.82,SE,137,5.0,17.0,99,0.30,,,0.56,VWS V14.01,2013-05-21 20:59:00,
2013-05-21 16:00:00,58.0,58.0,29.77,SE,140,10.0,17.0,100,0.30,,OVC041CB,0.56,VWS V14.01,2013-05-21 21:00:00,
2013-05-21 16:04:00,57.8,57.8,29.77,ENE,58,12.0,18.0,100,0.09,,,0.56,VWS V14.01,2013-05-21 21:04:00,
2013-05-21 16:09:00,57.8,57.5,29.77,NE,51,12.0,18.0,99,0.09,,,0.56,VWS V14.01,2013-05-21 21:09:00,
2013-05-21 16:14:00,58.0,57.2,29.77,ENE,76,6.0,18.0,97,0.10,,,0.57,VWS V14.01,2013-05-21 21:14:00,
2013-05-21 16:19:00,58.0,57.4,29.72,ENE,69,8.0,20.0,98,0.10,,,0.57,VWS V14.01,2013-05-21 21:19:00,
2013-05-21 16:24:00,58.3,57.2,29.72,East,90,5.0,20.0,96,0.10,,,0.57,VWS V14.01,2013-05-21 21:24:00,
2013-05-21 16:29:00,58.6,57.5,29.72,ENE,65,18.0,20.0,96,0.10,,,0.57,VWS V14.01,2013-05-21 21:29:00,
2013-05-21 16:34:00,59.0,58.2,29.66,ENE,78,13.0,20.0,97,0.10,,,0.57,VWS V14.01,2013-05-21 21:34:00,
2013-05-21 16:39:00,59.5,58.1,29.66,East,99,12.0,20.0,95,0.10,,,0.57,VWS V14.01,2013-05-21 21:39:00,
2013-05-21 16:44:00,59.9,58.2,29.66,ESE,113,5.0,20.0,94,0.10,,,0.57,VWS V14.01,2013-05-21 21:44:00,
2013-05-21 16:49:00,60.2,57.9,29.67,East,100,5.0,20.0,92,0.10,,,0.57,VWS V14.01,2013-05-21 21:49:00,
2013-05-21 16:54:00,60.5,58.2,29.67,WNW,288,13.0,20.0,92,0.10,,,0.57,VWS V14.01,2013-05-21 21:54:00,
2013-05-21 16:59:00,60.4,58.1,29.70,WNW,292,8.0,20.0,92,0.10,,,0.57,VWS V14.01,2013-05-21 21:59:00,
2013-05-21 17:04:00,60.4,58.1,29.70,WNW,282,10.0,11.0,92,0.01,,OVC250,0.57,VWS V14.01,2013-05-21 22:04:00,
2013-05-21 17:09:00,60.1,57.8,29.70,NW,311,10.0,19.0,92,0.01,,OVC250,0.57,VWS V14.01,2013-05-21 22:09:00,
2013-05-21 17:14:00,59.9,57.3,29.72,WNW,285,7.0,19.0,91,0.01,,OVC250,0.57,VWS V14.01,2013-05-21 22:14:00,
2013-05-21 17:19:00,59.8,57.8,29.72,West,264,2.0,19.0,93,0.01,,OVC250,0.57,VWS V14.01,2013-05-21 22:19:00,
2013-05-21 17:24:00,59.6,58.2,29.72,WNW,295,7.0,19.0,95,0.01,,OVC250,0.57,VWS V14.01,2013-05-21 22:24:00,
2013-05-21 17:29:00,59.3,57.9,29.74,West,275,2.0,19.0,95,0.01,,OVC250,0.57,VWS V14.01,2013-05-21 22:29:00,
2013-05-21 17:34:00,59.2,57.8,29.74,WNW,294,0.0,19.0,95,0.01,,OVC250,0.57,VWS V14.01,2013-05-21 22:34:00,
2013-05-21 17:39:00,59.2,57.8,29.74,WNW,295,2.0,19.0,95,0.01,,OVC250,0.57,VWS V14.01,2013-05-21 22:39:00,
2013-05-21 17:44:00,59.2,57.8,29.74,West,280,0.0,19.0,95,0.01,,OVC250,0.57,VWS V14.01,2013-05-21 22:44:00,
2013-05-21 17:49:00,59.2,58.1,29.74,WNW,289,3.0,19.0,96,0.01,,OVC250,0.57,VWS V14.01,2013-05-21 22:49:00,
2013-05-21 17:54:00,59.2,58.3,29.74,WNW,284,2.0,19.0,97,0.01,,OVC250,0.57,VWS V14.01,2013-05-21 22:54:00,
2013-05-21 17:59:00,59.3,58.2,29.75,West,260,6.0,19.0,96,0.01,,OVC250,0.57,VWS V14.01,2013-05-21 22:59:00,
2013-05-21 18:04:00,59.3,58.2,29.75,West,280,0.0,6.0,96,0.00,,BKN200,0.57,VWS V14.01,2013-05-21 23:04:00,
2013-05-21 18:10:00,59.3,58.2,29.75,NW,304,3.0,7.0,96,0.00,,BKN200,0.57,VWS V14.01,2013-05-21 23:10:00,
2013-05-21 18:15:00,59.5,58.1,29.74,NW,305,2.0,7.0,95,0.00,,BKN200,0.57,VWS V14.01,2013-05-21 23:15:00,
2013-05-21 18:20:00,59.6,58.2,29.74,WNW,289,6.0,10.0,95,0.00,,BKN200,0.57,VWS V14.01,2013-05-21 23:20:00,
2013-05-21 18:25:00,59.8,57.5,29.74,WNW,284,7.0,10.0,92,0.00,,BKN200,0.57,VWS V14.01,2013-05-21 23:25:00,
2013-05-21 18:30:00,59.8,57.5,29.76,WNW,288,6.0,10.0,92,0.00,,BKN200,0.57,VWS V14.01,2013-05-21 23:30:00,
2013-05-21 18:35:00,59.8,58.1,29.76,WSW,257,1.0,12.0,94,0.00,,BKN200,0.57,VWS V14.01,2013-05-21 23:35:00,
2013-05-21 18:40:00,59.8,57.5,29.76,WNW,292,2.0,12.0,92,0.00,,BKN200,0.57,VWS V14.01,2013-05-21 23:40:00,
2013-05-21 18:45:00,59.8,57.2,29.76,WSW,257,0.0,12.0,91,0.00,,BKN200,0.57,VWS V14.01,2013-05-21 23:45:00,
2013-05-21 18:50:00,59.9,57.6,29.76,WSW,257,2.0,12.0,92,0.00,,BKN200,0.57,VWS V14.01,2013-05-21 23:50:00,
2013-05-21 18:55:00,59.9,58.2,29.76,West,270,3.0,12.0,94,0.00,,BKN200,0.57,VWS V14.01,2013-05-21 23:55:00,
2013-05-21 19:00:00,59.9,57.6,29.76,WNW,284,2.0,2.0,92,0.00,,BKN200,0.57,VWS V14.01,2013-05-22 00:00:00,
2013-05-21 19:05:00,59.9,57.6,29.76,West,272,0.0,6.0,92,0.00,,BKN200,0.57,VWS V14.01,2013-05-22 00:05:00,
2013-05-21 19:10:00,60.1,57.5,29.76,WSW,253,0.0,6.0,91,0.00,,BKN200,0.57,VWS V14.01,2013-05-22 00:10:00,
2013-05-21 19:15:00,60.1,57.5,29.78,SSW,199,0.0,7.0,91,0.00,,BKN200,0.57,VWS V14.01,2013-05-22 00:15:00,
2013-05-21 19:20:00,60.2,57.6,29.78,WSW,248,0.0,7.0,91,0.00,,BKN200,0.57,VWS V14.01,2013-05-22 00:20:00,
2013-05-21 19:25:00,60.2,57.3,29.78,WSW,248,0.0,7.0,90,0.00,,BKN200,0.57,VWS V14.01,2013-05-22 00:25:00,
2013-05-21 19:30:00,60.4,57.5,29.78,WSW,248,0.0,7.0,90,0.00,,BKN200,0.57,VWS V14.01,2013-05-22 00:30:00,
2013-05-21 19:35:00,60.4,57.2,29.78,WSW,248,0.0,7.0,89,0.00,,BKN200,0.57,VWS V14.01,2013-05-22 00:35:00,
2013-05-21 19:40:00,60.4,57.2,29.78,WSW,241,0.0,7.0,89,0.00,,BKN200,0.57,VWS V14.01,2013-05-22 00:40:00,
2013-05-21 19:45:00,60.5,56.9,29.79,SW,232,0.0,7.0,88,0.00,,BKN200,0.57,VWS V14.01,2013-05-22 00:45:00,
2013-05-21 19:50:00,60.5,57.2,29.79,SW,230,0.0,7.0,89,0.00,,BKN200,0.57,VWS V14.01,2013-05-22 00:50:00,
2013-05-21 19:55:00,60.5,57.2,29.79,SW,230,1.0,7.0,89,0.00,,BKN200,0.57,VWS V14.01,2013-05-22 00:55:00,
2013-05-21 20:01:00,60.7,57.1,29.79,SW,222,1.0,2.0,88,0.00,,BKN200,0.57,VWS V14.01,2013-05-22 01:01:00,
2013-05-21 20:06:00,60.9,57.6,29.79,SSW,208,0.0,3.0,89,0.00,,BKN200,0.57,VWS V14.01,2013-05-22 01:06:00,
2013-05-21 20:11:00,60.9,57.6,29.79,South,185,2.0,5.0,89,0.00,,BKN200,0.57,VWS V14.01,2013-05-22 01:11:00,
2013-05-21 20:16:00,60.9,58.0,29.81,South,185,1.0,5.0,90,0.00,,BKN200,0.57,VWS V14.01,2013-05-22 01:16:00,
2013-05-21 20:21:00,60.7,57.4,29.81,South,185,2.0,5.0,89,0.00,,BKN200,0.57,VWS V14.01,2013-05-22 01:21:00,
2013-05-21 20:26:00,60.7,58.1,29.81,South,186,0.0,5.0,91,0.00,,BKN200,0.57,VWS V14.01,2013-05-22 01:26:00,
2013-05-21 20:31:00,60.5,57.9,29.81,SW,216,0.0,5.0,91,0.00,,BKN200,0.57,VWS V14.01,2013-05-22 01:31:00,
2013-05-21 20:36:00,60.5,58.2,29.81,SW,217,1.0,5.0,92,0.00,,BKN200,0.57,VWS V14.01,2013-05-22 01:36:00,
2013-05-21 20:41:00,60.4,58.1,29.81,SW,230,0.0,5.0,92,0.00,,BKN200,0.57,VWS V14.01,2013-05-22 01:41:00,
2013-05-21 20:46:00,60.4,58.1,29.81,SW,230,0.0,5.0,92,0.00,,BKN200,0.57,VWS V14.01,2013-05-22 01:46:00,
2013-05-21 20:51:00,60.4,58.1,29.81,SW,230,0.0,5.0,92,0.00,,BKN200,0.57,VWS V14.01,2013-05-22 01:51:00,
2013-05-21 20:56:00,60.4,58.1,29.81,SW,230,0.0,5.0,92,0.00,,BKN200,0.57,VWS V14.01,2013-05-22 01:56:00,
2013-05-21 21:01:00,60.4,58.1,29.82,SSW,192,0.0,3.0,92,0.00,,BKN085,0.57,VWS V14.01,2013-05-22 02:01:00,
2013-05-21 21:06:00,60.4,58.1,29.82,South,189,2.0,7.0,92,0.00,,BKN085,0.57,VWS V14.01,2013-05-22 02:06:00,
2013-05-21 21:11:00,60.4,58.1,29.82,SSW,210,1.0,7.0,92,0.00,,BKN085,0.57,VWS V14.01,2013-05-22 02:11:00,
2013-05-21 21:16:00,60.4,57.8,29.83,South,186,3.0,10.0,91,0.00,,BKN085,0.57,VWS V14.01,2013-05-22 02:16:00,
2013-05-21 21:21:00,60.2,57.9,29.83,South,176,0.0,10.0,92,0.00,,BKN085,0.57,VWS V14.01,2013-05-22 02:21:00,
2013-05-21 21:26:00,60.2,57.9,29.83,SSW,193,2.0,10.0,92,0.00,,BKN085,0.57,VWS V14.01,2013-05-22 02:26:00,
2013-05-21 21:31:00,60.2,58.2,29.83,SSW,205,6.0,10.0,93,0.00,,BKN085,0.57,VWS V14.01,2013-05-22 02:31:00,
2013-05-21 21:36:00,60.2,58.2,29.83,SSW,198,0.0,10.0,93,0.00,,BKN085,0.57,VWS V14.01,2013-05-22 02:36:00,
2013-05-21 21:41:00,60.2,57.9,29.83,SSW,212,6.0,10.0,92,0.00,,BKN085,0.57,VWS V14.01,2013-05-22 02:41:00,
2013-05-21 21:46:00,60.1,58.1,29.83,South,188,5.0,10.0,93,0.00,,BKN085,0.57,VWS V14.01,2013-05-22 02:46:00,
2013-05-21 21:51:00,60.1,58.1,29.83,SSW,198,1.0,10.0,93,0.00,,BKN085,0.57,VWS V14.01,2013-05-22 02:51:00,
2013-05-21 21:57:00,59.9,58.2,29.83,SSW,210,0.0,10.0,94,0.00,,BKN085,0.57,VWS V14.01,2013-05-22 02:57:00,
2013-05-21 22:02:00,59.8,58.1,29.83,SSW,206,2.0,3.0,94,0.00,,SCT090,0.57,VWS V14.01,2013-05-22 03:02:00,
2013-05-21 22:07:00,59.6,58.2,29.83,SSW,206,1.0,3.0,95,0.00,,SCT090,0.57,VWS V14.01,2013-05-22 03:07:00,
2013-05-21 22:12:00,59.6,58.2,29.83,SSW,206,0.0,3.0,95,0.00,,SCT090,0.57,VWS V14.01,2013-05-22 03:12:00,
2013-05-21 22:17:00,59.5,58.4,29.83,SSW,206,0.0,5.0,96,0.00,,SCT090,0.57,VWS V14.01,2013-05-22 03:17:00,
2013-05-21 22:22:00,59.5,58.4,29.83,SSW,202,0.0,5.0,96,0.00,,SCT090,0.57,VWS V14.01,2013-05-22 03:22:00,
2013-05-21 22:27:00,59.5,58.4,29.83,SSW,202,0.0,5.0,96,0.00,,SCT090,0.57,VWS V14.01,2013-05-22 03:27:00,
2013-05-21 22:32:00,59.3,58.5,29.83,SSW,202,0.0,5.0,97,0.00,,SCT090,0.57,VWS V14.01,2013-05-22 03:32:00,
2013-05-21 22:37:00,59.3,58.5,29.83,SSW,202,0.0,5.0,97,0.00,,SCT090,0.57,VWS V14.01,2013-05-22 03:37:00,
2013-05-21 23:23:00,58.6,58.3,29.83,SSW,202,0.0,0.0,99,0.00,,SCT090,0.57,VWS V14.01,2013-05-22 04:23:00,
2013-05-21 23:26:00,58.6,58.3,29.83,SSW,205,2.0,3.0,99,0.00,,SCT090,0.57,VWS V14.01,2013-05-22 04:26:00,
2013-05-21 23:27:00,58.6,58.3,29.83,SSW,206,0.0,3.0,99,0.00,,SCT090,0.57,VWS V14.01,2013-05-22 04:27:00,
2013-05-21 23:28:00,58.6,58.3,29.83,SSW,206,0.0,3.0,99,0.00,,SCT090,0.57,VWS V14.01,2013-05-22 04:28:00,
2013-05-21 23:33:00,58.4,58.1,29.84,SSW,205,0.0,3.0,99,0.00,,SCT090,0.57,VWS V14.01,2013-05-22 04:33:00,
2013-05-21 23:39:00,58.4,58.1,29.84,SSW,205,0.0,3.0,99,0.00,,SCT090,0.57,VWS V14.01,2013-05-22 04:39:00,
2013-05-21 23:44:00,58.3,58.0,29.84,SSW,205,0.0,3.0,99,0.00,,SCT090,0.57,VWS V14.01,2013-05-22 04:44:00,
2013-05-21 23:49:00,58.1,58.1,29.83,SSW,205,0.0,3.0,100,0.00,,SCT090,0.57,VWS V14.01,2013-05-22 04:49:00,
2013-05-21 23:54:00,58.0,58.0,29.83,SSW,205,0.0,3.0,100,0.00,,SCT090,0.57,VWS V14.01,2013-05-22 04:54:00,
2013-05-21 23:59:00,57.8,57.5,29.83,SSW,205,0.0,3.0,99,0.00,,SCT090,0.57,VWS V14.01,2013-05-22 04:59:00,